Flag for U.S.A. Weather past 2 weeks in Hampton, Virginia, U.S.A.

Now
67 °F

Passing clouds.


Feels Like: 67 °F
Forecast: 67 / 82 °F
Wind: 2 mph from West

Location: Langley Air Force Base

Current Time: Aug 30, 2015 at 6:12:35 AM

Latest Report: Aug 30, 2015 at 5:58 AM


Visibility: 10 mi

Pressure: 30.13 "Hg

Humidity: 93%

Dew point: 65 °F

Location of HamptonLocation

Historic Weather in Hampton — Graph

°F

Hampton temperature yesterday

Maximum temperature yesterday: 83 °F (at 2:58 PM)
Minimum temperature yesterday: 61 °F (at 5:58 AM)
Average temperature yesterday: 74 °F

Past Weeks' High & Low Weather Summary

 TemperatureHumidityPressure
High90 °F (Aug 20, 4:58 PM)97% (Aug 21, 1:58 AM)30.25 "Hg (Aug 21, 1:58 AM)
Low61 °F (Aug 29, 5:58 AM)38% (Aug 28, 2:58 PM)29.86 "Hg (Aug 24, 4:58 PM)
Average77 °F71%30.05 "Hg
* Reported Aug 15 4:58 AM — Aug 30 4:58 AM, Hampton, Weather by CustomWeather, © 2015

Note: Actual official high and low records may vary slightly from our data, if they occured in-between our weather recording intervals... More about our weather records

Advertising

Hampton weather history for previous 24 hours

 ConditionsComfort  
Time TempWeatherWind HumidityBarometerVisibility
4:58 AM
Sun, Aug 30
64 °FClear.2 mph94%30.12 "Hg10 mi
3:58 AM65 °FClear.2 mph92%30.12 "Hg10 mi
2:58 AM66 °FClear.2 mph92%30.13 "Hg10 mi
1:58 AM66 °FFog.2 mph90%30.14 "Hg6 mi
12:58 AM66 °FPassing clouds.1 mph88%30.16 "Hg8 mi
11:58 PM
Sat, Aug 29
68 °FPassing clouds.2 mph85%30.16 "Hg9 mi
10:58 PM74 °FClear.2 mph69%30.16 "Hg10 mi
9:58 PM75 °FClear.5 mph68%30.16 "Hg10 mi
8:58 PM75 °FClear.6 mph65%30.15 "Hg10 mi
7:58 PM76 °FSunny.7 mph63%30.15 "Hg10 mi
6:58 PM76 °FSunny.5 mph64%30.14 "Hg10 mi
5:58 PM78 °FSunny.8 mph59%30.15 "Hg10 mi
4:58 PM80 °FSunny.10 mph52%30.17 "Hg10 mi
3:58 PM81 °FSunny.8 mph53%30.18 "Hg10 mi
2:58 PM83 °FSunny.9 mph50%30.19 "Hg10 mi
1:58 PM83 °FSunny.9 mph50%30.21 "Hg10 mi
12:58 PM82 °FSunny.8 mph48%30.22 "Hg10 mi
11:58 AM82 °FSunny.7 mph49%30.24 "Hg10 mi
10:58 AM80 °FSunny.7 mph52%30.25 "Hg10 mi
9:58 AM79 °FSunny.8 mph56%30.25 "Hg10 mi
8:58 AM77 °FSunny.6 mph66%30.24 "Hg10 mi
7:58 AM68 °FSunny.1 mph90%30.24 "Hg10 mi
6:58 AM63 °FPassing clouds.No wind93%30.22 "Hg10 mi
Weather by CustomWeather, © 2015

See weather overviewHow to use our weather pages